Dauntless Aviation
Airports Europe United Kingdom
EGLC
LCY

London City

London, UNITED KINGDOM

Airport Info
Suggest Updated Information for this Airport

Location

Latitude / Longitude: 51°30'18"N / 0°3'12"E
  51°30.3'N / 0°3.21'E
  51.5050 / 0.0535

Nearby radio navigation aids

LCY CITY NDB on field.

Runway Information

Runway 10 /28

Dimensions: 4948 x 98 ft.
Surface: ASP
 
Runway 10
Runway 28
Latitude: 51.505528 51.504922
Longitude: 0.045753 0.064953
Elevation: 16 ft. 16 ft.
Runway true heading: 91.1 271.1
 

Instrument Procedures

  Aerodrome Chart
  Aircraft Parking/Docking Chart
  Control Zone and Control Area Chart

STARs (Standard Terminal Arrivals)

  Standard Instrument Arrival Coding Tables Rwy 09/27 JACKO 1L/ 1M
  Standard Instrument Arrival Coding Tables Rwy 09/27 GODLU 1G/ 1H
  Standard Instrument Arrival Coding Tables Rwy 09/27 GODLU 1J/ 1K/ 1L
  RNAV1 (DME/DME or GNSS) Transition Arrival Chart - Instrument Rwy 27 LAVNO 1G 1J
  RNAV1 (DME/DME or GNSS) Transition Arrival Chart - Instrument Rwy 09 ODLEG 1G 1J
  RNAV5 (VOR/DME/ DME/DME or GNSS) STAR - Instrument Rwy 09/27 JACKO 1A 1B 1D
  RNAV5 (VOR/DME/ DME/DME or GNSS) STAR - Instrument Rwy 09/27 GODLU 1A 1C 1D 1F
  RNAV5 (VOR/DME/ DME/DME or GNSS) STAR - Instrument Rwy 09/27 JACKO 1H
  RNAV5 (VOR/DME/ DME/DME or GNSS) STAR - Instrument Rwy 09/27 JACKO 1L 1M
  RNAV5 (VOR/DME/ DME/DME or GNSS) STAR - Instrument Rwy 09/27 GODLU 1G 1H
  RNAV5 (VOR/DME/ DME/DME or GNSS) STAR - Instrument Rwy 09/27 GODLU 1J 1K 1L
  Standard Instrument Arrival Coding Tables Rwy 09/27 JACKO 1A/ 1B/ 1D
  Standard Instrument Arrival Coding Tables Rwy 09/27 GODLU 1A/ 1C/ 1D/ 1F
  Standard Instrument Arrival Coding Tables Rwy 09/27 JACKO 1H

IAPs (Instrument Approach Procedures)

  ILS (5.5°GP) /DME/NDB (L) Rwy 09 (Aircraft CAT A/B/C)
  LOC/DME/NDB (L) Rwy 09
  LOC/DME/NDB (L) Rwy 27 (Aircraft CAT A/B/C)
  Visual Approach Profile Rwy 27
  Visual Approach Profile Rwy 09
  ILS (5.5°GP) /DME/NDB (L) Rwy 27 (Aircraft CAT A/B/C)
  Aerodrome Information (Textual)
  Transition Coding Tables Rwy 27 LAVNO 1G/ 1J
  Transition Coding Tables Rwy 09 ODLEG 1G 1J
  RNAV Hold Coding Tables GODLU/ OKVAP/ JACKO/ ROPMU
  ATC Surveillance Minimum Altitude Chart

Departure Procedures

  Standard Instrument Departure Coding Tables Rwy 09 BPK 1H/ CPT 1H
  Standard Instrument Departure Coding Tables Rwy 09 CLN 1H/ Rwy 27 CLN 1A
  SID - Instrument (SID) Rwy 09/27 DVR 5T 5U LYD 5T 5U
  SID - Instrument (SID) Rwy 09/27 CLN 7T 7U
  SID - Instrument (SID) Rwy 09/27 BPK 5T 5U CPT 6T 6U
  RNAV1 (DME/DME or GNSS) SID - Instrument (SID) Rwy 27 BPK 1A CPT 1A
  RNAV1 (DME/DME or GNSS) SID - Instrument (SID) Rwy 09 BPK 1H CPT 1H
  RNAV1 (DME/DME or GNSS) SID - Instrument (SID) Rwy 09/27 CLN 1A 1H
  Standard Instrument Departure Coding Tables Rwy 27 BPK 1A/ CPT 1A
  RNAV1 (DME/DME or GNSS) SID - Instrument (SID) Rwy 09/27 EKNIV 1A 1H
  Standard Instrument Departure Coding Tables Rwy 09 EKNIV 1H/ Rwy 27 EKNIV 1A
Satellite photo at:
Airport distance calculator
From:
Weather Reports

METAR

EGLC

EGLC 230550Z AUTO 06011KT 7000 -RA NCD 08/06 Q1012
EGWU
17.8nm W
EGWU 230550Z 06009KT 9999 FEW010 BKN035 07/05 Q1011 BLU NOSIG
EGLL
18.9nm SW
EGLL 230550Z AUTO 06006KT 8000 -RA OVC039 07/06 Q1011 NOSIG
EGSS
23.5nm N
EGSS 230550Z AUTO 06009KT 4200 BR FEW040 06/05 Q1013 RERA
EGKK
23.8nm S
EGKK 230550Z 04006KT 9999 FEW043 06/05 Q1011
EGMC
24.4nm NE
EGMC 230550Z 07009KT 9000 NSC 07/05 Q1012

TAF

EGLC
TAF EGLC 230454Z 2306/2315 06012KT 9999 SCT025 PROB30 TEMPO 2306/2308 7000 RA BKN014 PROB30 TEMPO 2309/2315 09015G25KT
EGWU
17.8nm W
TAF EGWU 230440Z 2306/2324 08010KT 9999 FEW010 BKN040 TEMPO 2306/2308 6000 -RA SCT010 BECMG 2309/2312 05017G27KT BECMG 2321/2324 04012KT
EGLL
18.9nm SW
TAF EGLL 230453Z 2306/2412 07010KT 9999 SCT028 PROB30 TEMPO 2306/2308 7000 -RADZ BKN012 BECMG 2310/2313 07016G26KT PROB30 TEMPO 2322/2407 9000 -RA BKN012 BECMG 2323/2402 05011KT TEMPO 2410/2412 06015G25KT
EGSS
23.5nm N
TAF AMD EGSS 230539Z 2306/2412 06013KT 9999 SCT025 PROB30 TEMPO 2306/2308 4000 RA BKN009 PROB40 TEMPO 2308/2324 07017G27KT PROB30 TEMPO 2322/2409 BKN009
EGKK
23.8nm S
TAF EGKK 230455Z 2306/2412 07008KT 9999 SCT045 PROB30 TEMPO 2306/2307 6000 RA BECMG 2309/2312 06016G26KT BECMG 2400/2403 06012KT PROB30 TEMPO 2400/2404 7000 RA BKN012 TEMPO 2404/2410 BKN012 PROB30 TEMPO 2410/2412 05015G25KT
EGMC
24.4nm NE
TAF EGMC 230454Z 2306/2315 06002KT 9999 SCT025 BECMG 2306/2308 06012KT PROB30 TEMPO 2306/2308 7000 RA BKN014 PROB30 TEMPO 2309/2315 09015G25KT
Safelog

 

Dauntless Aviation

© 2007-2017 Dauntless Aviation, all rights reserved
Information provided via PilotNav comes from a variety of official and unofficial data sources. As errors are possible, do not use PilotNav for primary flight planning purposes. Verify any information that you receive via PilotNav with current and canonical charts and other official documents. The material in this database is subject to database copyrights held by Dauntless Aviation and may not be copied without the express permission of Dauntless Aviation - licenses for use of part of all of this data are available for purchase; enquire via the Dauntless Aviation helpdesk. A number of mechanisms and markers exist in the database to protect against and identify infringement / copyright. Automated queries against this website are stictly prohibited, and all activity is logged and analyzed.